Main page
METAR-TAF:

METAR-TAF

Airports :

Southwest Minnesota Regional Airport (Marshall/Ryan Field)

Marshall, Minnesota, United States

latitude: 44-27N, longitude: 095-49W, elevation: 1178 ft

Current weather observation

The report was made 26 minutes ago, at 18:56 UTC
Wind 17 mph from the West
Temperature 55°F
Humidity 33%
Pressure 29.90 in. Hg
Visibility: 10 miles
Clear sky

METAR: KMML 281856Z AUTO 27015KT 10SM CLR 13/M03 A2990 RMK AO2 SLP132 T01281033

Time: 13:22 (19:22 UTC)


TAF: missing

Weather observations and forecasts of more than 4000 airports (METAR and TAF reports).

The available stations are represented by yellow and red dots on the map.

Hover mouse over dot to see the name of the station.

Then click to see weather observations and forecasts.

To change the map : click on the green buttons with a black cross to zoom in, on the green button with a dash to zoom out, or on the green arrows for adjacent maps.


METAR-TAF: